Aurora, CO

6:17 AM MST on February 23, 2018 (GMT -0700)
Buckley Air Force Base

Weather History for KBKF - July, 2013

Change the Weather History Date:

Saturday, July 13, 2013

  Actual Average Record
Temperature  
Mean Temperature 76 °F -  
Max Temperature 91 °F 86 °F 100 °F (2003)
Min Temperature 62 °F 59 °F 53 °F (1997)
Cooling Degree Days 12    
Growing Degree Days 26 (Base 50)    
Moisture  
Dew Point 58 °F    
Average Humidity 64    
Maximum Humidity 100    
Minimum Humidity 26    
Precipitation  
Precipitation 0.81 in - - ()
Sea Level Pressure  
Sea Level Pressure 29.97 in    
Wind  
Wind Speed 6 mph (South)    
Max Wind Speed 17 mph    
Max Gust Speed 24 mph    
Visibility 10 miles    
Events Rain , Thunderstorm    
Averages and records for this station are not official NWS values.
T = Trace of Precipitation, MM = Missing Value Source: NWS Daily Summary

Daily Weather History Graph

Daily Weather History Graph

Search for Another Location

Airport or City:

Trip Planner

Search our weather history database for the weather conditions in past years. The results will help you decide how hot, cold, wet, or windy it might be!

Date:

Astronomy

Jul. 13, 2013 Rise Set
Actual Time 5:42 AM MDT 8:26 PM MDT
Civil Twilight 5:10 AM MDT 8:58 PM MDT
Nautical Twilight 4:30 AM MDT 9:38 PM MDT
Astronomical Twilight 3:45 AM MDT 10:23 PM MDT
Moon 11:00 AM MDT (7/13) 11:09 PM MDT (7/13)
Length of Visible Light 15h 47m
Length of Day
14h 44m
Waxing Crescent, 26% of the Moon is Illuminated
Jul 13
Waxing Crescent
Jul 15
First Quarter
Jul 22
Full
Jul 29
Last Quarter
Aug 6
New

Hourly Weather History & Observations

Time (MDT) Temp. Heat Index Dew Point Humidity Pressure Visibility Wind Dir Wind Speed Gust Speed Precip Events Conditions
12:55 AM 68.0 °F - 59.0 °F 73% 29.93 in 25.0 mi SSE 1.2 mph - N/A   Mostly Cloudy
1:55 AM 66.2 °F - 59.0 °F 78% 29.93 in 10.0 mi WSW 4.6 mph - N/A   Mostly Cloudy
2:55 AM 66.2 °F - 57.2 °F 73% 29.92 in 10.0 mi SSW 6.9 mph - N/A   Mostly Cloudy
3:55 AM 66.2 °F - 57.2 °F 73% 29.94 in 10.0 mi South 5.8 mph - N/A   Mostly Cloudy
4:55 AM 64.4 °F - 57.2 °F 77% 29.93 in 10.0 mi South 6.9 mph - N/A   Mostly Cloudy
5:55 AM 64.4 °F - 57.2 °F 77% 29.93 in 70.0 mi South 8.1 mph - N/A   Mostly Cloudy
6:55 AM 66.2 °F - 57.2 °F 73% 29.93 in 70.0 mi South 4.6 mph - N/A   Mostly Cloudy
7:55 AM 71.6 °F - 57.2 °F 60% 29.94 in 70.0 mi SSW 4.6 mph - N/A   Mostly Cloudy
8:55 AM 77.0 °F - 57.2 °F 50% 29.94 in 70.0 mi Calm Calm - N/A   Mostly Cloudy
9:55 AM 78.8 °F - 57.2 °F 47% 29.93 in 70.0 mi SW 3.5 mph - N/A   Scattered Clouds
10:55 AM 82.4 °F 81.7 °F 55.4 °F 39% 29.92 in 70.0 mi NNE 4.6 mph - N/A   Scattered Clouds
11:55 AM 86.0 °F 84.2 °F 53.6 °F 33% 29.90 in 70.0 mi ENE 2.3 mph - N/A   Scattered Clouds
12:55 PM 89.6 °F - 50.0 °F 26% 29.89 in 70.0 mi East 3.5 mph - N/A   Partly Cloudy
1:55 PM 91.4 °F - 51.8 °F 26% 29.86 in 70.0 mi East 3.5 mph - N/A   Mostly Cloudy
2:55 PM 91.4 °F - 51.8 °F 26% 29.86 in 25.0 mi NE 12.7 mph - N/A Thunderstorm Mostly Cloudy
3:55 PM 84.2 °F 83.0 °F 55.4 °F 37% 29.88 in 25.0 mi SE 17.3 mph - N/A Thunderstorm Mostly Cloudy
4:34 PM 82.4 °F 82.0 °F 57.2 °F 42% 30.10 in 10.0 mi SE 12.7 mph - N/A Thunderstorm Thunderstorm
4:55 PM 82.4 °F 81.7 °F 55.4 °F 39% 29.89 in 10.0 mi SSE 8.1 mph - N/A Rain , Thunderstorm Light Thunderstorms and Rain
5:41 PM 73.4 °F - 60.8 °F 65% 30.16 in 10.0 mi North 15.0 mph - N/A Thunderstorm Mostly Cloudy
5:55 PM 71.6 °F - 62.6 °F 73% 29.96 in 10.0 mi North 15.0 mph - N/A Thunderstorm Thunderstorm
6:04 PM 71.6 °F - 60.8 °F 69% 30.20 in 10.0 mi West 16.1 mph 24.2 mph N/A Rain , Thunderstorm Light Thunderstorms and Rain
6:55 PM 62.6 °F - 59.0 °F 88% 30.04 in 4.0 mi North 15.0 mph - N/A Rain , Thunderstorm Light Thunderstorms and Rain
7:34 PM 64.4 °F - 60.8 °F 88% 30.23 in 10.0 mi SW 4.6 mph - N/A Rain , Thunderstorm Light Rain Showers
7:55 PM 64.4 °F - 60.8 °F 88% 30.01 in 70.0 mi South 6.9 mph - N/A Rain Light Rain Showers
8:55 PM 64.4 °F - 62.6 °F 94% 30.01 in 25.0 mi North 8.1 mph - N/A   Mostly Cloudy
9:55 PM 62.6 °F - 62.6 °F 100% 30.02 in 25.0 mi North 4.6 mph - N/A   Mostly Cloudy
10:55 PM 64.4 °F - 60.8 °F 88% 30.03 in 10.0 mi NW 4.6 mph - N/A   Mostly Cloudy
11:55 PM 62.6 °F - 60.8 °F 94% 30.01 in 10.0 mi West 6.9 mph - N/A   Mostly Cloudy